[[{"header":{"parameterUnit":"m.s-1","parameterCategory":1,"la1":30.2991,"la2":30.254,"lo1":-89.0895,"lo2":-89.0444,"dy":0.0017,"dx":0.0017,"nx":28,"ny":28,"refTime":"2023-11-04T09:00:00:Z","depth":0,"parameterNumber":2,"parameterNumberName":"U-component_of_WINDS"},"data":[0,0,0,0,0,0,0,0,0,0,0,0,0,0,0,0,0,0,0,0,0,0,0,0,0,0,0,0,0,0,0,0,0,0,0,0,0,0,0,0,0,0,0,0,0,0,0,0,0,0,0,0,0,0,0,0,0,0,0.7281,0.7282,0,0.7308,0.7309,0.7309,0.7266,0.7264,0.7263,0.7261,0.729,0.7292,0.7294,0,0,0,0,0,0,0,0,0,0,0,0,0,0.7193,0.7194,0.7281,0.7282,0.7282,0.7308,0.7309,0.7309,0.7266,0.7264,0.7262,0.7261,0.7289,0.7292,0.7295,0,0,0,0,0,0,0,0,0,0,0,0,0,0.7227,0.7195,0.7281,0.7263,0.7262,0.7308,0.7309,0.7309,0.7266,0.7264,0.7262,0.726,0.7289,0.7292,0.7295,0.736,0,0,0.7305,0.7306,0,0,0,0,0,0,0,0,0.7225,0.723,0.7266,0.7265,0.7263,0.7281,0.7288,0.7326,0.7267,0.7265,0.7261,0.7259,0.7289,0.7292,0.7302,0.7361,0.7362,0.7305,0.7307,0.7308,0.7309,0,0,0,0,0,0,0,0.7222,0.7228,0.7292,0.7266,0.7265,0.7254,0.7257,0.7295,0.7289,0.7265,0.7262,0.7265,0.7288,0.7299,0.7303,0.7363,0.7305,0.7308,0.731,0.7311,0.7475,0.7478,0,0,0,0,0,0,0.7222,0.7227,0.7291,0.7293,0.7238,0.7258,0.726,0.7278,0.7289,0.7288,0.7267,0.7263,0.7295,0.7299,0.7303,0.7379,0.7308,0.7311,0.7313,0.7473,0.7476,0.7479,0,0,0,0,0,0,0.722,0.7228,0.729,0.7259,0.7266,0.7262,0.7282,0.728,0.7291,0.7291,0.7289,0.728,0.7293,0.7299,0.7346,0.7379,0.7313,0.7316,0.747,0.7474,0.7477,0.7531,0,0,0,0,0,0,0.7218,0.7228,0.7252,0.726,0.7268,0.7332,0.7284,0.7282,0.7296,0.7291,0.7302,0.7301,0.7292,0.7341,0.7349,0.7383,0.7318,0.7467,0.7472,0.7476,0.7527,0.7536,0.7545,0,0,0,0,0,0.7215,0.7267,0.7254,0.7262,0.7298,0.7334,0.7338,0.7326,0.7299,0.7324,0.7323,0.7301,0.7375,0.7346,0.7355,0.739,0.7465,0.747,0.7476,0.7522,0.7534,0.7545,0,0,0,0,0,0,0.7264,0.7268,0.7253,0.7309,0.7321,0.7327,0.7357,0.7339,0.736,0.7354,0.7338,0.7341,0.7391,0.7395,0.7364,0.7453,0.7415,0.7423,0.7448,0.7459,0.7468,0.7466,0.7321,0,0,0,0,0,0.7281,0.731,0.7311,0.7361,0.7368,0.7362,0.7377,0.7366,0.7378,0.7383,0.7387,0.74,0.7425,0.7443,0.7467,0.7527,0.7529,0.7556,0.7565,0.7572,0.7579,0.761,0.7622,0.7496,0.7496,0.7496,0,0,0.7317,0.7323,0.7342,0.7371,0.7379,0.7409,0.7366,0.74,0.7421,0.7388,0.7432,0.7436,0.7449,0.7503,0.7527,0.7508,0.7614,0.7579,0.7585,0.7587,0.7617,0.7629,0.7639,0.75,0.7499,0.7499,0,0,0.7398,0.7405,0.7446,0.7455,0.7468,0.7464,0.7474,0.7482,0.7482,0.7526,0.7502,0.7528,0.7573,0.7583,0.7595,0.7679,0.7659,0.7687,0.7735,0.7765,0.7775,0.7784,0.7813,0.7823,0.7694,0.7694,0.7694,0,0.7441,0.7484,0.747,0.7505,0.7518,0.7489,0.753,0.754,0.7561,0.7571,0.7549,0.7605,0.7612,0.7667,0.7688,0.7698,0.7709,0.7685,0.7775,0.7783,0.7791,0.7819,0.783,0.7697,0.7697,0.7697,0.7696,0,0.7536,0.7566,0.7598,0.7618,0.7635,0.7673,0.7664,0.7683,0.7671,0.7669,0.7714,0.7722,0.7746,0.7759,0.7748,0.7812,0.78,0.7778,0.7739,0.7807,0.7832,0.7843,0.7702,0.7701,0.77,0.7699,0,0,0.7647,0.7658,0.767,0.7678,0.769,0.7714,0.7751,0.7774,0.779,0.7806,0.7835,0.7874,0.7853,0.7866,0.7856,0.7883,0.7948,0.7857,0.7857,0.7872,0.8018,0.8034,0.8047,0.7935,0.7937,0.7939,0.8017,0,0.7725,0.7788,0.7776,0.7837,0.7865,0.7839,0.787,0.7882,0.7881,0.7904,0.7903,0.7931,0.7901,0.7909,0.7934,0.7934,0.7977,0.7929,0.7962,0.7963,0.7958,0.806,0.8077,0.815,0.8027,0.8028,0.8029,0,0.7825,0.7843,0.7907,0.7914,0.7926,0.7955,0.7975,0.7998,0.801,0.8007,0.8022,0.8006,0.8043,0.8005,0.8055,0.8023,0.8036,0.8038,0.8041,0.8042,0.7999,0.8063,0.8173,0.8184,0.8045,0.8044,0.8043,0,0.7898,0.7939,0.7982,0.799,0.8,0.8021,0.8026,0.8036,0.805,0.8069,0.8078,0.81,0.8112,0.813,0.8121,0.8095,0.8172,0.8134,0.8171,0.8171,0.8187,0.8186,0.83,0.8198,0.8198,0.8198,0.8198,0,0.7986,0.8026,0.8014,0.8041,0.8084,0.8071,0.8114,0.8117,0.8126,0.8152,0.8131,0.8156,0.8144,0.8168,0.8162,0.8203,0.8209,0.8208,0.8205,0.8209,0.8209,0.8216,0.821,0.8201,0.82,0.8199,0.8199,0,0.8074,0.8068,0.8113,0.8119,0.8121,0.8153,0.8158,0.8182,0.818,0.8214,0.8221,0.8217,0.8245,0.8238,0.8269,0.8264,0.8316,0.8308,0.8312,0.8309,0.8345,0.8342,0.8467,0.8482,0.8372,0.8373,0.8374,0,0.8129,0.8159,0.8168,0.8184,0.8191,0.8217,0.8231,0.822,0.8236,0.8252,0.8275,0.83,0.832,0.8365,0.8365,0.8388,0.838,0.8422,0.8383,0.8385,0.8379,0.8376,0.8379,0.8429,0.8431,0.8432,0.8433,0,0.8228,0.8224,0.8246,0.8267,0.8285,0.8301,0.8315,0.833,0.8319,0.8338,0.8366,0.8381,0.8412,0.8437,0.8459,0.8464,0.8446,0.8445,0.8454,0.8457,0.8458,0.8456,0.8331,0.8442,0.8441,0.844,0.844,0.8439,0.8301,0.8325,0.8335,0.836,0.837,0.8383,0.8406,0.8407,0.843,0.8453,0.8446,0.8477,0.8488,0.8515,0.8523,0.8547,0.8531,0.8545,0.8548,0.8552,0.8555,0.8455,0.8551,0.8551,0.8551,0.8551,0.855,0,0.8397,0.8402,0.8425,0.8445,0.8465,0.8447,0.8462,0.848,0.8507,0.8519,0.8539,0.8571,0.8595,0.8598,0.8621,0.864,0.8632,0.8646,0.8644,0.8645,0.8569,0.8558,0.8652,0.8652,0.8652,0.8652,0.8652,0.8652,0.8449,0.849,0.8487,0.8532,0.8537,0.8567,0.8577,0.8589,0.8599,0.8635,0.8655,0.8656,0.8664,0.8688,0.871,0.871,0.8719,0.8735,0.8732,0.8661,0.8651,0.8641,0.863,0.8738,0.8738,0.8806,0.8807,0.8807]},{"header":{"parameterUnit":"m.s-1","parameterCategory":1,"la1":30.2991,"la2":30.254,"lo1":-89.0895,"lo2":-89.0444,"dy":0.0017,"dx":0.0017,"nx":28,"ny":28,"refTime":"2023-11-04T09:00:00:Z","depth":0,"parameterNumber":3,"parameterNumberName":"V-component_of_WINDS"},"data":[0,0,0,0,0,0,0,0,0,0,0,0,0,0,0,0,0,0,0,0,0,0,0,0,0,0,0,0,0,0,0,0,0,0,0,0,0,0,0,0,0,0,0,0,0,0,0,0,0,0,0,0,0,0,0,0,0,0,-0.62,-0.6202,0,-0.6382,-0.6385,-0.6387,-0.6492,-0.6492,-0.6492,-0.6493,-0.6682,-0.6686,-0.6691,0,0,0,0,0,0,0,0,0,0,0,0,0,-0.5945,-0.5949,-0.62,-0.6202,-0.6204,-0.6382,-0.6385,-0.6387,-0.6491,-0.6492,-0.6492,-0.6493,-0.668,-0.6686,-0.6691,0,0,0,0,0,0,0,0,0,0,0,0,0,-0.6084,-0.595,-0.6199,-0.6278,-0.6287,-0.6382,-0.6385,-0.6388,-0.6491,-0.6492,-0.6492,-0.6493,-0.6678,-0.6685,-0.6692,-0.6724,0,0,-0.6714,-0.6717,0,0,0,0,0,0,0,0,-0.6076,-0.6093,-0.6264,-0.6272,-0.6283,-0.6415,-0.6364,-0.6501,-0.6491,-0.6414,-0.6493,-0.6493,-0.6593,-0.6607,-0.664,-0.6733,-0.6741,-0.6714,-0.6718,-0.6721,-0.6723,0,0,0,0,0,0,0,-0.6066,-0.6086,-0.6272,-0.6266,-0.6278,-0.6305,-0.6325,-0.639,-0.6498,-0.642,-0.6428,-0.6449,-0.6598,-0.6633,-0.6645,-0.6744,-0.6714,-0.672,-0.6725,-0.6727,-0.6874,-0.6874,0,0,0,0,0,0,-0.6044,-0.6077,-0.6266,-0.6278,-0.6179,-0.6309,-0.6332,-0.6372,-0.6497,-0.6517,-0.6448,-0.6453,-0.662,-0.6637,-0.6652,-0.6699,-0.6721,-0.6728,-0.6732,-0.6875,-0.6874,-0.6874,0,0,0,0,0,0,-0.6038,-0.606,-0.6259,-0.618,-0.6207,-0.6313,-0.6357,-0.6375,-0.641,-0.6518,-0.6538,-0.6464,-0.6622,-0.6642,-0.6706,-0.6707,-0.6731,-0.6738,-0.6875,-0.6875,-0.6874,-0.6792,0,0,0,0,0,0,-0.603,-0.6057,-0.6069,-0.6179,-0.6211,-0.6308,-0.6357,-0.6378,-0.6422,-0.643,-0.6538,-0.6557,-0.6624,-0.6695,-0.6713,-0.6717,-0.6743,-0.6875,-0.6875,-0.6874,-0.6795,-0.6788,-0.6783,0,0,0,0,0,-0.6021,-0.6039,-0.6069,-0.6091,-0.6228,-0.6308,-0.6326,-0.6402,-0.6421,-0.6435,-0.6505,-0.6553,-0.6704,-0.67,-0.6721,-0.6728,-0.6876,-0.6875,-0.6874,-0.6797,-0.679,-0.6783,0,0,0,0,0,0,-0.5926,-0.6054,-0.609,-0.6144,-0.6214,-0.6325,-0.6345,-0.6392,-0.6459,-0.6463,-0.6556,-0.6579,-0.6634,-0.6688,-0.6681,-0.6766,-0.6795,-0.6799,-0.6729,-0.6723,-0.6717,-0.6703,-0.6749,0,0,0,0,0,-0.5911,-0.5964,-0.6074,-0.6111,-0.6145,-0.6238,-0.6276,-0.6329,-0.6406,-0.6436,-0.6511,-0.6584,-0.6649,-0.6689,-0.6754,-0.6803,-0.6829,-0.6818,-0.6812,-0.6807,-0.6809,-0.6841,-0.6838,-0.6872,-0.6872,-0.6872,0,0,-0.5882,-0.5959,-0.5986,-0.6094,-0.6155,-0.6209,-0.6263,-0.6317,-0.6359,-0.6445,-0.6509,-0.6566,-0.6655,-0.6712,-0.6741,-0.6758,-0.6806,-0.6806,-0.6801,-0.6806,-0.684,-0.6837,-0.6834,-0.6871,-0.6871,-0.6872,0,0,-0.5856,-0.5918,-0.5957,-0.6017,-0.6108,-0.6171,-0.618,-0.6285,-0.6326,-0.6392,-0.6458,-0.6509,-0.6618,-0.6678,-0.6723,-0.6722,-0.6769,-0.674,-0.671,-0.674,-0.6737,-0.6735,-0.6736,-0.6735,-0.6742,-0.6742,-0.6742,0,-0.5808,-0.5891,-0.5971,-0.6022,-0.6068,-0.6148,-0.6189,-0.6244,-0.6351,-0.6382,-0.64,-0.6538,-0.6603,-0.6676,-0.6676,-0.6709,-0.6724,-0.6729,-0.6731,-0.673,-0.6729,-0.6731,-0.6731,-0.6738,-0.6738,-0.6739,-0.6739,0,-0.5828,-0.5884,-0.5905,-0.6007,-0.6055,-0.6101,-0.6189,-0.6229,-0.6278,-0.6339,-0.6406,-0.6487,-0.6571,-0.6592,-0.664,-0.6672,-0.668,-0.6713,-0.6744,-0.6721,-0.6724,-0.6725,-0.6732,-0.6734,-0.6735,-0.6736,0,0,-0.5747,-0.5893,-0.5899,-0.5947,-0.6054,-0.61,-0.615,-0.6232,-0.6264,-0.6337,-0.6382,-0.6472,-0.6504,-0.6555,-0.6611,-0.6637,-0.6632,-0.6667,-0.6671,-0.6658,-0.6674,-0.6649,-0.6648,-0.6664,-0.6665,-0.6665,-0.6667,0,-0.5737,-0.5829,-0.5903,-0.5969,-0.6023,-0.61,-0.6144,-0.6215,-0.6274,-0.633,-0.6395,-0.6458,-0.6495,-0.6526,-0.6555,-0.6626,-0.6637,-0.6627,-0.6708,-0.671,-0.6684,-0.665,-0.6624,-0.6622,-0.6669,-0.6669,-0.6669,0,-0.5737,-0.5806,-0.5876,-0.5979,-0.6005,-0.6043,-0.6124,-0.6176,-0.6259,-0.63,-0.6357,-0.6416,-0.6474,-0.6498,-0.658,-0.6572,-0.661,-0.665,-0.6652,-0.6663,-0.6688,-0.6661,-0.6623,-0.6623,-0.6672,-0.6672,-0.6672,0,-0.5672,-0.5782,-0.5839,-0.5878,-0.5999,-0.6024,-0.6076,-0.616,-0.6204,-0.6276,-0.6306,-0.6383,-0.6425,-0.6485,-0.6563,-0.6574,-0.6637,-0.6668,-0.6674,-0.6672,-0.6684,-0.6682,-0.6652,-0.6707,-0.6707,-0.6707,-0.6707,0,-0.5653,-0.5693,-0.5812,-0.5846,-0.5895,-0.598,-0.6026,-0.6085,-0.6159,-0.6208,-0.628,-0.6324,-0.6424,-0.6482,-0.6543,-0.6603,-0.6621,-0.6657,-0.6673,-0.6651,-0.6646,-0.6677,-0.6679,-0.6707,-0.6707,-0.6707,-0.6707,0,-0.5589,-0.5669,-0.5736,-0.5846,-0.5875,-0.5905,-0.6,-0.6037,-0.61,-0.6161,-0.6181,-0.628,-0.6351,-0.6435,-0.6533,-0.6575,-0.6629,-0.6653,-0.6601,-0.661,-0.6611,-0.661,-0.6601,-0.6604,-0.6655,-0.6654,-0.6654,0,-0.5571,-0.5604,-0.5717,-0.5755,-0.5805,-0.5864,-0.591,-0.5997,-0.6042,-0.614,-0.6166,-0.6242,-0.6308,-0.6418,-0.65,-0.6576,-0.6602,-0.6594,-0.6614,-0.6592,-0.6604,-0.6601,-0.6605,-0.6588,-0.6587,-0.6586,-0.6586,0,-0.5533,-0.5572,-0.5635,-0.5712,-0.5764,-0.583,-0.5898,-0.5925,-0.6026,-0.6073,-0.6146,-0.6197,-0.6298,-0.6374,-0.646,-0.6516,-0.6568,-0.6579,-0.6584,-0.6562,-0.6531,-0.6549,-0.6586,-0.6578,-0.6579,-0.658,-0.658,-0.658,-0.5493,-0.5526,-0.5611,-0.5679,-0.574,-0.5802,-0.5843,-0.5912,-0.5974,-0.6062,-0.611,-0.6182,-0.6267,-0.6389,-0.6442,-0.6501,-0.6519,-0.6527,-0.6529,-0.653,-0.6524,-0.6521,-0.6517,-0.6518,-0.6518,-0.6518,-0.6518,0,-0.5459,-0.5518,-0.5579,-0.5673,-0.5727,-0.5771,-0.5849,-0.5892,-0.5954,-0.6028,-0.6091,-0.6176,-0.625,-0.6338,-0.6418,-0.6449,-0.6475,-0.6467,-0.6466,-0.6478,-0.6502,-0.649,-0.6445,-0.6445,-0.6445,-0.6445,-0.6445,-0.6445,-0.5447,-0.5506,-0.5555,-0.5646,-0.5705,-0.5776,-0.5817,-0.5876,-0.5935,-0.6026,-0.6088,-0.6145,-0.6225,-0.6312,-0.6382,-0.6406,-0.6433,-0.6418,-0.6449,-0.647,-0.6476,-0.6482,-0.6471,-0.6423,-0.6423,-0.642,-0.642,-0.642]}]]